Location: Malmö
(55.6090°N, 13.0007°E)
Time: 09:15:55
(UTC+01:00)

ISS - Pass Details

Date: 02 February 2021
Orbit: 417 x 422 km, 51.6° (Epoch: 05 March)

Event Time Altitude Azimuth Distance (km) Brightness Sun altitude
Rises 18:04:03 0° 272° (W) 2,376 1.8 -11.2°
Reaches altitude 10° 18:06:20 10° 261° (W) 1,510 0.6 -11.5°
Maximum altitude 18:09:15 27° 201° (SSW) 841 -1.9 -11.9°
Drops below altitude 10° 18:12:11 10° 141° (SE) 1,508 -1.2 -12.3°
Enters shadow 18:12:55 - 136° (SE) 1,772 -0.9 -12.4°
